Powrót do katalogu

INTELSAT 3-F7

AktywnyŁącznośćGEO
NORAD 4376·PAYLOAD· XX

Wystrzelony Apr 23, 1970 z Cape Canaveral Space Force Station

Loading…

TLE

ŚwieżeSource: Space-Track

Epoka: Sep 14, 2026, 20:44 UTC

1 04376U 70032A   26257.86426317 -.00000274  00000-0  00000-0 0  9995
2 04376   2.6528  85.9862 0002954 198.2789 162.2164  1.00280516 48262

Śledź INTELSAT 3-F7 w czasie rzeczywistym z AllMySat

Download on the App Store